Gwinn, MI

11:39 AM EDT on May 22, 2017 (GMT -0400)
Sawyer International

Weather History for KSAW - January, 2012

Change the Weather History Date:

Monday, January 30, 2012

  Actual Average (KESC) Record (KESC)
Temperature  
Mean Temperature 13 °F -  
Max Temperature 26 °F 26 °F 42 °F (2016)
Min Temperature 0 °F 5 °F -22 °F (1951)
Degree Days  
Heating Degree Days 52    
Moisture  
Dew Point 9 °F    
Average Humidity 85    
Maximum Humidity 93    
Minimum Humidity 77    
Precipitation  
Precipitation 0.00 in - - ()
Sea Level Pressure  
Sea Level Pressure 29.91 in    
Wind  
Wind Speed 3 mph (South)    
Max Wind Speed 13 mph    
Max Gust Speed 17 mph    
Visibility 9 miles    
Events Snow    
Averages and records for this station are not official NWS values.
T = Trace of Precipitation, MM = Missing Value Source: NWS Daily Summary

Daily Weather History Graph

Daily Weather History Graph

Search for Another Location

Airport or City:

Trip Planner

Search our weather history database for the weather conditions in past years. The results will help you decide how hot, cold, wet, or windy it might be!

Date:

Astronomy

Jan. 30, 2012 Rise Set
Actual Time 8:15 AM EST 5:50 PM EST
Civil Twilight 7:43 AM EST 6:22 PM EST
Nautical Twilight 7:07 AM EST 6:59 PM EST
Astronomical Twilight 6:31 AM EST 7:34 PM EST
Moon 11:08 AM EST (1/30) 1:02 AM EST (1/30)
Length of Visible Light 10h 39m
Length of Day
9h 34m
Waxing Crescent, 46% of the Moon is Illuminated
Jan 30
Waxing Crescent
Jan 30
First Quarter
Feb 7
Full
Feb 14
Last Quarter
Feb 21
New

Hourly Weather History & Observations

Time (EST) Temp. Windchill Dew Point Humidity Pressure Visibility Wind Dir Wind Speed Gust Speed Precip Events Conditions
12:17 AM 8.1 °F 1.4 °F 2.1 °F 77% 30.05 in 10.0 mi SW 3.5 mph - N/A   Overcast
12:37 AM 6.8 °F - 1.8 °F 80% 30.05 in 10.0 mi Calm Calm - N/A   Scattered Clouds
12:57 AM 6.6 °F - 1.9 °F 81% 30.05 in 10.0 mi Calm Calm - N/A   Clear
1:17 AM 6.4 °F - 1.4 °F 80% 30.05 in 10.0 mi Calm Calm - N/A   Clear
1:36 AM 4.5 °F -2.7 °F -0.4 °F 80% 30.05 in 10.0 mi WSW 3.5 mph - N/A   Clear
1:57 AM 4.8 °F -5.8 °F -0.4 °F 79% 30.05 in 10.0 mi WSW 5.8 mph - N/A   Clear
2:17 AM 3.9 °F -3.4 °F -1.3 °F 79% 30.05 in 10.0 mi WSW 3.5 mph - N/A   Clear
2:36 AM 3.6 °F - -1.3 °F 80% 30.05 in 10.0 mi Calm Calm - N/A   Clear
2:57 AM 3.6 °F - -1.5 °F 80% 30.05 in 10.0 mi Calm Calm - N/A   Clear
3:16 AM 3.2 °F - -1.3 °F 82% 30.04 in 10.0 mi Calm Calm - N/A   Clear
3:37 AM 2.5 °F -5.0 °F -1.7 °F 83% 30.03 in 10.0 mi SSW 3.5 mph - N/A   Clear
3:57 AM 1.2 °F - -3.6 °F 80% 30.02 in 10.0 mi Calm Calm - N/A   Clear
4:17 AM 0.3 °F -7.5 °F -3.6 °F 83% 30.02 in 10.0 mi SSW 3.5 mph - N/A   Clear
4:37 AM -0.0 °F - -3.8 °F 84% 30.02 in 10.0 mi Calm Calm - N/A   Scattered Clouds
4:57 AM 0.9 °F - -3.3 °F 83% 30.02 in 10.0 mi Calm Calm - N/A   Scattered Clouds
5:16 AM 0.5 °F - -3.3 °F 84% 30.02 in 10.0 mi Calm Calm - N/A   Mostly Cloudy
5:37 AM 0.9 °F - -3.3 °F 83% 30.00 in 10.0 mi Calm Calm - N/A   Scattered Clouds
5:57 AM -0.2 °F - -4.5 °F 82% 29.99 in 10.0 mi Calm Calm - N/A   Clear
6:50 AM -0.4 °F - -4.0 °F 85% 29.98 in 10.0 mi Calm Calm - N/A   Mostly Cloudy
7:50 AM 3.2 °F - 1.4 °F 92% 29.98 in 10.0 mi Calm Calm - N/A   Overcast
8:50 AM 5.0 °F -6.9 °F 1.4 °F 85% 29.96 in 2.5 mi SSE 6.9 mph - N/A Snow Light Snow
9:50 AM 10.4 °F -0.4 °F 6.8 °F 85% 29.95 in 1.0 mi South 6.9 mph - N/A Snow Light Snow
10:50 AM 14.0 °F 3.9 °F 10.4 °F 86% 29.93 in 1.5 mi South 6.9 mph - N/A Snow Light Snow
11:55 AM 15.8 °F 6.1 °F 12.2 °F 86% 29.91 in 7.0 mi SSE 6.9 mph - N/A Snow Light Snow
12:55 PM 17.6 °F 6.4 °F 14.0 °F 86% 29.86 in 10.0 mi SSE 9.2 mph - N/A   Overcast
1:55 PM 23.0 °F 11.7 °F 19.4 °F 86% 29.77 in 5.0 mi SSE 11.5 mph - N/A   Overcast
2:55 PM 23.0 °F 11.7 °F 19.4 °F 86% 29.77 in 7.0 mi SSE 11.5 mph 16.1 mph N/A   Overcast
3:55 PM 24.8 °F 14.6 °F 21.2 °F 86% 29.76 in 3.0 mi West 10.4 mph - N/A Snow Light Snow
4:50 PM 24.8 °F 13.4 °F 21.2 °F 86% 29.75 in 5.0 mi South 12.7 mph 17.3 mph N/A   Overcast
5:45 PM 24.8 °F 14.6 °F 23.0 °F 93% 29.77 in 7.0 mi South 10.4 mph 16.1 mph N/A   Overcast
6:50 PM 24.8 °F 16.9 °F 23.0 °F 93% 29.77 in 10.0 mi South 6.9 mph - N/A   Overcast
7:50 PM 24.8 °F 16.1 °F 23.0 °F 93% 29.77 in 10.0 mi South 8.1 mph - N/A   Overcast
8:50 PM 26.6 °F 20.0 °F 23.0 °F 86% 29.75 in 10.0 mi South 5.8 mph - N/A   Overcast
9:52 PM 26.6 °F 20.0 °F 23.0 °F 86% 29.75 in 10.0 mi South 5.8 mph - N/A   Overcast
10:17 PM 26.2 °F 18.6 °F 23.4 °F 89% 29.74 in 10.0 mi SSW 6.9 mph - N/A   Overcast
10:37 PM 26.4 °F 18.9 °F 23.7 °F 90% 29.74 in 10.0 mi South 6.9 mph - N/A   Overcast
10:56 PM 26.4 °F 19.8 °F 23.9 °F 90% 29.74 in 10.0 mi South 5.8 mph - N/A   Overcast
11:17 PM 26.4 °F 19.8 °F 23.9 °F 90% 29.74 in 10.0 mi South 5.8 mph - N/A   Overcast
11:37 PM 26.6 °F - 24.8 °F 93% 29.74 in 10.0 mi Calm Calm - N/A   Overcast
11:56 PM 26.4 °F - 23.9 °F 90% 29.73 in 10.0 mi Calm Calm - N/A   Overcast